STARLINK-11172, 60193

Orbit data source: Space-Track

STARLINK-11172, 60193 is a payload satellite owned by SpaceX/Seattle (US) in LEO that was launched on Wed, 03 Jul 2024 UTC via an FALCON 9 launch vehicle from the Air Force Eastern Test Range (AFETR). Payload-class satellites include a variety of spacecraft equipped with specific instruments for various scientific and technological missions. These include communications satellites like Starlink; space stations such as the ISS; scientific satellites like the Hubble; Earth observation satellites from companies like Planet Labs, Umbra, and HawkEye 360; GPS; miniature CubeSats for education and research; and military/defense satellites.

Loading next visibility...
Identifier
60193, 2024-124L
Orbit
LEO
Country
Flag of USUS
Related business
Manufacturer
SpaceX/Seattle
Mission
Operational Commercial Communications
Bus & Motor
STARLINK V2MD, Unknown motor
Mass
960 kg wet, ~910 kg dry
Launch date (UTC)
2024-07-03 (2 years ago)
Launch vehicle
FALCON 9
Launch site
Air Force Eastern Test Range (AFETR)
Object type
Payload
Rocket body
Debris
Shape & HBR
Box + 2 Pan, 18.1 m
Radar Cross Section
36.964 m², Large (>1 m²)

Expand to show TLE details & history
Last TLE update: 9 hours ago

TLE from 9 hours ago
0 STARLINK-11172
1 60193U 24124L   26036.92353739  .00010518  00000-0  91493-4 0  9995
2 60193  53.1578 317.9378 0001495 126.8411 233.2744 15.69729309 91545
Epoch: 2026-02-05T22:09Z
TLE epoch observation values (Epoch: 2026-02-05T22:09:53.630Z)
Latitude
-0.00003°
Longitude
-150.60448°
Altitude
361.189 km
Speed
7.693 km/s
True Right ascension
21h 11m 45s
True Declination
0° 00' 00"
Sunlit
Object was in daylight at epoch
Visualization orbit readout
Latitude
Unknown
Longitude
Unknown
Altitude
Unknown
Speed
Unknown
Apparent Right ascension
Unknown
Apparent Declination
Unknown
Sunlit
N/A
Visualization observer readout
Local Sidereal Time
08:59:23
Azimuth
Unknown
Elevation
Unknown
Doppler factor
Unknown
Orbital elements
Apogee altitude
360.94 km
Perigee altitude
358.925 km
Semi-major axis
6,738.07 km
Eccentricity
0.00015
Inclination
53.1578°
RAAN
317.9378°
Arg. of periapsis
126.8411°
True anomaly
233.26067°
Mean anomaly
233.2744°
Eccentric anomaly
233.26754°
Mean motion
3.9241 °/min
Orbital period
91.74 mins
BSTAR
0.000091493
Loading maneuver chart data...
Computing Atmospheric mass density...
Loading historical data...
Loading historical data...
Loading historical data...
Loading historical data...
Loading historical data...
Loading historical data...
Loading historical data...

Documentation

Showing up to 5 results
|